Monticello, AR

10:35 AM CST on January 22, 2018 (GMT -0600)
Monticello Municipal-Ellis

Weather History for KLLQ - April, 2013

Change the Weather History Date:

Tuesday, April 2, 2013

  Actual Average Record
Temperature  
Mean Temperature 53 °F -  
Max Temperature 63 °F 71 °F 88 °F (2006)
Min Temperature 42 °F 46 °F 29 °F (1992)
Degree Days  
Heating Degree Days 12    
Growing Degree Days 3 (Base 50)    
Moisture  
Dew Point 42 °F    
Average Humidity 66    
Maximum Humidity 89    
Minimum Humidity 46    
Precipitation  
Precipitation 0.11 in - - ()
Sea Level Pressure  
Sea Level Pressure 30.14 in    
Wind  
Wind Speed 7 mph (NE)    
Max Wind Speed 15 mph    
Max Gust Speed 24 mph    
Visibility 10 miles    
Events Rain    
Averages and records for this station are not official NWS values.
T = Trace of Precipitation, MM = Missing Value Source: NWS Daily Summary

Daily Weather History Graph

Daily Weather History Graph

Search for Another Location

Airport or City:

Trip Planner

Search our weather history database for the weather conditions in past years. The results will help you decide how hot, cold, wet, or windy it might be!

Date:

Astronomy

Apr. 02, 2013 Rise Set
Actual Time 6:52 AM CDT 7:28 PM CDT
Civil Twilight 6:27 AM CDT 7:53 PM CDT
Nautical Twilight 5:58 AM CDT 8:23 PM CDT
Astronomical Twilight 5:28 AM CDT 8:53 PM CDT
Moon 1:21 AM CDT (4/2) 11:55 AM CDT (4/2)
Length of Visible Light 13h 25m
Length of Day
12h 35m
Waning Gibbous, 55% of the Moon is Illuminated
Apr 2
Waning Gibbous
Apr 2
Last Quarter
Apr 10
New
Apr 18
First Quarter
Apr 25
Full

Hourly Weather History & Observations

Time (CDT) Temp. Windchill Dew Point Humidity Pressure Visibility Wind Dir Wind Speed Gust Speed Precip Events Conditions
12:53 AM 54.0 °F - 48.9 °F 83% 30.10 in 10.0 mi Calm Calm - N/A   Clear
1:53 AM 55.0 °F - 48.0 °F 77% 30.11 in 10.0 mi NE 4.6 mph - N/A   Clear
2:53 AM 53.1 °F - 46.9 °F 80% 30.11 in 10.0 mi NE 5.8 mph - N/A   Clear
3:53 AM 53.1 °F - 46.9 °F 80% 30.10 in 10.0 mi NE 6.9 mph - 0.00 in   Clear
4:53 AM 52.0 °F - 46.0 °F 80% 30.11 in 10.0 mi NE 5.8 mph - 0.00 in   Clear
5:53 AM 51.1 °F - 45.0 °F 80% 30.12 in 10.0 mi ENE 6.9 mph - N/A   Clear
6:53 AM 51.1 °F - 44.1 °F 77% 30.15 in 10.0 mi ENE 8.1 mph - N/A   Clear
7:53 AM 52.0 °F - 43.0 °F 71% 30.17 in 10.0 mi NE 8.1 mph - N/A   Clear
8:53 AM 54.0 °F - 43.0 °F 66% 30.18 in 10.0 mi NE 12.7 mph - N/A   Clear
9:53 AM 55.9 °F - 42.1 °F 60% 30.18 in 10.0 mi NE 13.8 mph - N/A   Clear
10:53 AM 57.9 °F - 42.1 °F 56% 30.19 in 10.0 mi ENE 11.5 mph - N/A   Clear
11:53 AM 59.0 °F - 41.0 °F 51% 30.19 in 10.0 mi East 12.7 mph - 0.00 in   Clear
12:53 PM 61.0 °F - 42.1 °F 50% 30.16 in 10.0 mi NE 10.4 mph 19.6 mph N/A   Clear
1:53 PM 61.0 °F - 42.1 °F 50% 30.13 in 10.0 mi ENE 15.0 mph - N/A   Clear
2:53 PM 62.1 °F - 42.1 °F 48% 30.12 in 10.0 mi ENE 11.5 mph 24.2 mph N/A   Clear
3:53 PM 62.1 °F - 41.0 °F 46% 30.13 in 10.0 mi NNE 6.9 mph - N/A   Clear
4:53 PM 59.0 °F - 39.0 °F 48% 30.12 in 10.0 mi NNE 9.2 mph 20.7 mph N/A   Clear
5:53 PM 55.0 °F - 37.0 °F 51% 30.13 in 10.0 mi NNE 11.5 mph 20.7 mph N/A   Clear
6:53 PM 51.1 °F - 36.0 °F 56% 30.12 in 10.0 mi NE 11.5 mph 19.6 mph N/A   Clear
7:53 PM 48.9 °F - 37.0 °F 64% 30.11 in 10.0 mi NNE 11.5 mph 18.4 mph N/A   Mostly Cloudy
8:53 PM 48.0 °F - 36.0 °F 63% 30.15 in 10.0 mi Variable 6.9 mph - 0.00 in   Overcast
9:53 PM 45.0 °F 39.3 °F 37.9 °F 76% 30.15 in 10.0 mi NE 11.5 mph 19.6 mph 0.01 in   Overcast
10:53 PM 44.1 °F 40.1 °F 39.0 °F 82% 30.16 in 10.0 mi Variable 6.9 mph - 0.00 in Rain Light Rain
11:53 PM 42.1 °F 37.7 °F 39.0 °F 89% 30.17 in 4.0 mi Variable 6.9 mph - 0.10 in Rain Rain